Index of /20260418/WXO-DD/model_rdps/10km/00/071
Name Last modified Size Description
Parent Directory -
20260418T00Z_MSC_RDPS_AbsoluteVorticity_IsbL-0250_RLatLon0.09_PT071H.grib2 2026-04-18 03:01 607K
20260418T00Z_MSC_RDPS_AbsoluteVorticity_IsbL-0500_RLatLon0.09_PT071H.grib2 2026-04-18 03:01 700K
20260418T00Z_MSC_RDPS_AbsoluteVorticity_IsbL-0700_RLatLon0.09_PT071H.grib2 2026-04-18 03:01 630K
20260418T00Z_MSC_RDPS_AbsoluteVorticity_IsbL-0850_RLatLon0.09_PT071H.grib2 2026-04-18 03:01 789K
20260418T00Z_MSC_RDPS_AirTemp_AGL-120m_RLatLon0.09_PT071H.grib2 2026-04-18 03:01 375K
20260418T00Z_MSC_RDPS_AirTemp_AGL-2m_RLatLon0.09_PT071H.grib2 2026-04-18 03:01 624K
20260418T00Z_MSC_RDPS_AirTemp_AGL-40m_RLatLon0.09_PT071H.grib2 2026-04-18 03:01 385K
20260418T00Z_MSC_RDPS_AirTemp_AGL-80m_RLatLon0.09_PT071H.grib2 2026-04-18 03:01 379K
20260418T00Z_MSC_RDPS_AirTemp_IsbL-0001_RLatLon0.09_PT071H.grib2 2026-04-18 03:01 309K
20260418T00Z_MSC_RDPS_AirTemp_IsbL-0005_RLatLon0.09_PT071H.grib2 2026-04-18 03:01 336K
20260418T00Z_MSC_RDPS_AirTemp_IsbL-0010_RLatLon0.09_PT071H.grib2 2026-04-18 03:01 311K
20260418T00Z_MSC_RDPS_AirTemp_IsbL-0020_RLatLon0.09_PT071H.grib2 2026-04-18 03:01 331K
20260418T00Z_MSC_RDPS_AirTemp_IsbL-0030_RLatLon0.09_PT071H.grib2 2026-04-18 03:01 352K
20260418T00Z_MSC_RDPS_AirTemp_IsbL-0050_RLatLon0.09_PT071H.grib2 2026-04-18 03:01 331K
20260418T00Z_MSC_RDPS_AirTemp_IsbL-0100_RLatLon0.09_PT071H.grib2 2026-04-18 03:01 434K
20260418T00Z_MSC_RDPS_AirTemp_IsbL-0150_RLatLon0.09_PT071H.grib2 2026-04-18 03:01 425K
20260418T00Z_MSC_RDPS_AirTemp_IsbL-0175_RLatLon0.09_PT071H.grib2 2026-04-18 03:01 425K
20260418T00Z_MSC_RDPS_AirTemp_IsbL-0200_RLatLon0.09_PT071H.grib2 2026-04-18 03:01 427K
20260418T00Z_MSC_RDPS_AirTemp_IsbL-0225_RLatLon0.09_PT071H.grib2 2026-04-18 03:01 423K
20260418T00Z_MSC_RDPS_AirTemp_IsbL-0250_RLatLon0.09_PT071H.grib2 2026-04-18 03:01 425K
20260418T00Z_MSC_RDPS_AirTemp_IsbL-0275_RLatLon0.09_PT071H.grib2 2026-04-18 03:01 402K
20260418T00Z_MSC_RDPS_AirTemp_IsbL-0300_RLatLon0.09_PT071H.grib2 2026-04-18 03:01 406K
20260418T00Z_MSC_RDPS_AirTemp_IsbL-0350_RLatLon0.09_PT071H.grib2 2026-04-18 03:01 418K
20260418T00Z_MSC_RDPS_AirTemp_IsbL-0400_RLatLon0.09_PT071H.grib2 2026-04-18 03:01 422K
20260418T00Z_MSC_RDPS_AirTemp_IsbL-0450_RLatLon0.09_PT071H.grib2 2026-04-18 03:01 399K
20260418T00Z_MSC_RDPS_AirTemp_IsbL-0500_RLatLon0.09_PT071H.grib2 2026-04-18 03:01 414K
20260418T00Z_MSC_RDPS_AirTemp_IsbL-0550_RLatLon0.09_PT071H.grib2 2026-04-18 03:01 436K
20260418T00Z_MSC_RDPS_AirTemp_IsbL-0600_RLatLon0.09_PT071H.grib2 2026-04-18 03:01 457K
20260418T00Z_MSC_RDPS_AirTemp_IsbL-0650_RLatLon0.09_PT071H.grib2 2026-04-18 03:01 473K
20260418T00Z_MSC_RDPS_AirTemp_IsbL-0700_RLatLon0.09_PT071H.grib2 2026-04-18 03:01 497K
20260418T00Z_MSC_RDPS_AirTemp_IsbL-0750_RLatLon0.09_PT071H.grib2 2026-04-18 03:01 423K
20260418T00Z_MSC_RDPS_AirTemp_IsbL-0800_RLatLon0.09_PT071H.grib2 2026-04-18 03:01 464K
20260418T00Z_MSC_RDPS_AirTemp_IsbL-0850_RLatLon0.09_PT071H.grib2 2026-04-18 03:01 502K
20260418T00Z_MSC_RDPS_AirTemp_IsbL-0875_RLatLon0.09_PT071H.grib2 2026-04-18 03:01 515K
20260418T00Z_MSC_RDPS_AirTemp_IsbL-0900_RLatLon0.09_PT071H.grib2 2026-04-18 03:01 519K
20260418T00Z_MSC_RDPS_AirTemp_IsbL-0925_RLatLon0.09_PT071H.grib2 2026-04-18 03:01 517K
20260418T00Z_MSC_RDPS_AirTemp_IsbL-0950_RLatLon0.09_PT071H.grib2 2026-04-18 03:01 517K
20260418T00Z_MSC_RDPS_AirTemp_IsbL-0970_RLatLon0.09_PT071H.grib2 2026-04-18 03:01 516K
20260418T00Z_MSC_RDPS_AirTemp_IsbL-0985_RLatLon0.09_PT071H.grib2 2026-04-18 03:01 508K
20260418T00Z_MSC_RDPS_AirTemp_IsbL-1000_RLatLon0.09_PT071H.grib2 2026-04-18 03:01 500K
20260418T00Z_MSC_RDPS_AirTemp_IsbL-1015_RLatLon0.09_PT071H.grib2 2026-04-18 03:01 494K
20260418T00Z_MSC_RDPS_Albedo_Sfc_RLatLon0.09_PT071H.grib2 2026-04-18 03:01 158K
20260418T00Z_MSC_RDPS_CAPE_Sfc_RLatLon0.09_PT071H.grib2 2026-04-18 03:01 1.7M
20260418T00Z_MSC_RDPS_CIN_Sfc_RLatLon0.09_PT071H.grib2 2026-04-18 03:01 1.2M
20260418T00Z_MSC_RDPS_CloudWater_EAtm_RLatLon0.09_PT071H.grib2 2026-04-18 03:01 219K
20260418T00Z_MSC_RDPS_ConvectivePrecip-Accum_Sfc_RLatLon0.09_PT071H.grib2 2026-04-18 03:01 1.3M
20260418T00Z_MSC_RDPS_DewPointDepression_AGL-2m_RLatLon0.09_PT071H.grib2 2026-04-18 03:01 413K
20260418T00Z_MSC_RDPS_DewPointDepression_IsbL-0001_RLatLon0.09_PT071H.grib2 2026-04-18 03:01 193
20260418T00Z_MSC_RDPS_DewPointDepression_IsbL-0005_RLatLon0.09_PT071H.grib2 2026-04-18 03:01 193
20260418T00Z_MSC_RDPS_DewPointDepression_IsbL-0010_RLatLon0.09_PT071H.grib2 2026-04-18 03:01 193
20260418T00Z_MSC_RDPS_DewPointDepression_IsbL-0020_RLatLon0.09_PT071H.grib2 2026-04-18 03:01 193
20260418T00Z_MSC_RDPS_DewPointDepression_IsbL-0030_RLatLon0.09_PT071H.grib2 2026-04-18 03:01 193
20260418T00Z_MSC_RDPS_DewPointDepression_IsbL-0050_RLatLon0.09_PT071H.grib2 2026-04-18 03:01 111K
20260418T00Z_MSC_RDPS_DewPointDepression_IsbL-0100_RLatLon0.09_PT071H.grib2 2026-04-18 03:01 129K
20260418T00Z_MSC_RDPS_DewPointDepression_IsbL-0150_RLatLon0.09_PT071H.grib2 2026-04-18 03:01 156K
20260418T00Z_MSC_RDPS_DewPointDepression_IsbL-0175_RLatLon0.09_PT071H.grib2 2026-04-18 03:01 188K
20260418T00Z_MSC_RDPS_DewPointDepression_IsbL-0200_RLatLon0.09_PT071H.grib2 2026-04-18 03:01 222K
20260418T00Z_MSC_RDPS_DewPointDepression_IsbL-0225_RLatLon0.09_PT071H.grib2 2026-04-18 03:01 257K
20260418T00Z_MSC_RDPS_DewPointDepression_IsbL-0250_RLatLon0.09_PT071H.grib2 2026-04-18 03:01 293K
20260418T00Z_MSC_RDPS_DewPointDepression_IsbL-0275_RLatLon0.09_PT071H.grib2 2026-04-18 03:01 302K
20260418T00Z_MSC_RDPS_DewPointDepression_IsbL-0300_RLatLon0.09_PT071H.grib2 2026-04-18 03:01 323K
20260418T00Z_MSC_RDPS_DewPointDepression_IsbL-0350_RLatLon0.09_PT071H.grib2 2026-04-18 03:01 332K
20260418T00Z_MSC_RDPS_DewPointDepression_IsbL-0400_RLatLon0.09_PT071H.grib2 2026-04-18 03:01 347K
20260418T00Z_MSC_RDPS_DewPointDepression_IsbL-0450_RLatLon0.09_PT071H.grib2 2026-04-18 03:01 363K
20260418T00Z_MSC_RDPS_DewPointDepression_IsbL-0500_RLatLon0.09_PT071H.grib2 2026-04-18 03:01 380K
20260418T00Z_MSC_RDPS_DewPointDepression_IsbL-0550_RLatLon0.09_PT071H.grib2 2026-04-18 03:01 394K
20260418T00Z_MSC_RDPS_DewPointDepression_IsbL-0600_RLatLon0.09_PT071H.grib2 2026-04-18 03:01 408K
20260418T00Z_MSC_RDPS_DewPointDepression_IsbL-0650_RLatLon0.09_PT071H.grib2 2026-04-18 03:01 410K
20260418T00Z_MSC_RDPS_DewPointDepression_IsbL-0700_RLatLon0.09_PT071H.grib2 2026-04-18 03:01 417K
20260418T00Z_MSC_RDPS_DewPointDepression_IsbL-0750_RLatLon0.09_PT071H.grib2 2026-04-18 03:01 438K
20260418T00Z_MSC_RDPS_DewPointDepression_IsbL-0800_RLatLon0.09_PT071H.grib2 2026-04-18 03:01 465K
20260418T00Z_MSC_RDPS_DewPointDepression_IsbL-0850_RLatLon0.09_PT071H.grib2 2026-04-18 03:01 474K
20260418T00Z_MSC_RDPS_DewPointDepression_IsbL-0875_RLatLon0.09_PT071H.grib2 2026-04-18 03:01 470K
20260418T00Z_MSC_RDPS_DewPointDepression_IsbL-0900_RLatLon0.09_PT071H.grib2 2026-04-18 03:01 460K
20260418T00Z_MSC_RDPS_DewPointDepression_IsbL-0925_RLatLon0.09_PT071H.grib2 2026-04-18 03:01 449K
20260418T00Z_MSC_RDPS_DewPointDepression_IsbL-0950_RLatLon0.09_PT071H.grib2 2026-04-18 03:01 440K
20260418T00Z_MSC_RDPS_DewPointDepression_IsbL-0970_RLatLon0.09_PT071H.grib2 2026-04-18 03:01 435K
20260418T00Z_MSC_RDPS_DewPointDepression_IsbL-0985_RLatLon0.09_PT071H.grib2 2026-04-18 03:01 429K
20260418T00Z_MSC_RDPS_DewPointDepression_IsbL-1000_RLatLon0.09_PT071H.grib2 2026-04-18 03:01 425K
20260418T00Z_MSC_RDPS_DewPointDepression_IsbL-1015_RLatLon0.09_PT071H.grib2 2026-04-18 03:01 415K
20260418T00Z_MSC_RDPS_DewPoint_AGL-2m_RLatLon0.09_PT071H.grib2 2026-04-18 03:01 398K
20260418T00Z_MSC_RDPS_DownwardLongwaveRadiationFlux-Accum_Sfc_RLatLon0.09_PT071H.grib2 2026-04-18 03:01 415K
20260418T00Z_MSC_RDPS_DownwardShortwaveRadiationFlux-Accum_NTAtm_RLatLon0.09_PT071H.grib2 2026-04-18 03:01 116K
20260418T00Z_MSC_RDPS_DownwardShortwaveRadiationFlux-Accum_Sfc_RLatLon0.09_PT071H.grib2 2026-04-18 03:01 602K
20260418T00Z_MSC_RDPS_FreezingRain-Accum1h_Sfc_RLatLon0.09_PT071H.grib2 2026-04-18 03:01 12K
20260418T00Z_MSC_RDPS_FreezingRain-Accum_Sfc_RLatLon0.09_PT071H.grib2 2026-04-18 03:01 147K
20260418T00Z_MSC_RDPS_GeopotentialHeight_IsbL-0001_RLatLon0.09_PT071H.grib2 2026-04-18 03:01 208K
20260418T00Z_MSC_RDPS_GeopotentialHeight_IsbL-0005_RLatLon0.09_PT071H.grib2 2026-04-18 03:01 267K
20260418T00Z_MSC_RDPS_GeopotentialHeight_IsbL-0010_RLatLon0.09_PT071H.grib2 2026-04-18 03:01 312K
20260418T00Z_MSC_RDPS_GeopotentialHeight_IsbL-0020_RLatLon0.09_PT071H.grib2 2026-04-18 03:01 308K
20260418T00Z_MSC_RDPS_GeopotentialHeight_IsbL-0030_RLatLon0.09_PT071H.grib2 2026-04-18 03:01 309K
20260418T00Z_MSC_RDPS_GeopotentialHeight_IsbL-0050_RLatLon0.09_PT071H.grib2 2026-04-18 03:01 344K
20260418T00Z_MSC_RDPS_GeopotentialHeight_IsbL-0100_RLatLon0.09_PT071H.grib2 2026-04-18 03:01 290K
20260418T00Z_MSC_RDPS_GeopotentialHeight_IsbL-0150_RLatLon0.09_PT071H.grib2 2026-04-18 03:01 230K
20260418T00Z_MSC_RDPS_GeopotentialHeight_IsbL-0175_RLatLon0.09_PT071H.grib2 2026-04-18 03:01 264K
20260418T00Z_MSC_RDPS_GeopotentialHeight_IsbL-0200_RLatLon0.09_PT071H.grib2 2026-04-18 03:01 266K
20260418T00Z_MSC_RDPS_GeopotentialHeight_IsbL-0225_RLatLon0.09_PT071H.grib2 2026-04-18 03:01 267K
20260418T00Z_MSC_RDPS_GeopotentialHeight_IsbL-0250_RLatLon0.09_PT071H.grib2 2026-04-18 03:01 268K
20260418T00Z_MSC_RDPS_GeopotentialHeight_IsbL-0275_RLatLon0.09_PT071H.grib2 2026-04-18 03:01 266K
20260418T00Z_MSC_RDPS_GeopotentialHeight_IsbL-0300_RLatLon0.09_PT071H.grib2 2026-04-18 03:01 266K
20260418T00Z_MSC_RDPS_GeopotentialHeight_IsbL-0350_RLatLon0.09_PT071H.grib2 2026-04-18 03:01 232K
20260418T00Z_MSC_RDPS_GeopotentialHeight_IsbL-0400_RLatLon0.09_PT071H.grib2 2026-04-18 03:01 229K
20260418T00Z_MSC_RDPS_GeopotentialHeight_IsbL-0450_RLatLon0.09_PT071H.grib2 2026-04-18 03:01 299K
20260418T00Z_MSC_RDPS_GeopotentialHeight_IsbL-0500_RLatLon0.09_PT071H.grib2 2026-04-18 03:01 295K
20260418T00Z_MSC_RDPS_GeopotentialHeight_IsbL-0550_RLatLon0.09_PT071H.grib2 2026-04-18 03:01 293K
20260418T00Z_MSC_RDPS_GeopotentialHeight_IsbL-0600_RLatLon0.09_PT071H.grib2 2026-04-18 03:01 291K
20260418T00Z_MSC_RDPS_GeopotentialHeight_IsbL-0650_RLatLon0.09_PT071H.grib2 2026-04-18 03:01 262K
20260418T00Z_MSC_RDPS_GeopotentialHeight_IsbL-0700_RLatLon0.09_PT071H.grib2 2026-04-18 03:01 261K
20260418T00Z_MSC_RDPS_GeopotentialHeight_IsbL-0750_RLatLon0.09_PT071H.grib2 2026-04-18 03:01 345K
20260418T00Z_MSC_RDPS_GeopotentialHeight_IsbL-0800_RLatLon0.09_PT071H.grib2 2026-04-18 03:01 350K
20260418T00Z_MSC_RDPS_GeopotentialHeight_IsbL-0850_RLatLon0.09_PT071H.grib2 2026-04-18 03:01 356K
20260418T00Z_MSC_RDPS_GeopotentialHeight_IsbL-0875_RLatLon0.09_PT071H.grib2 2026-04-18 03:01 357K
20260418T00Z_MSC_RDPS_GeopotentialHeight_IsbL-0900_RLatLon0.09_PT071H.grib2 2026-04-18 03:01 362K
20260418T00Z_MSC_RDPS_GeopotentialHeight_IsbL-0925_RLatLon0.09_PT071H.grib2 2026-04-18 03:01 365K
20260418T00Z_MSC_RDPS_GeopotentialHeight_IsbL-0950_RLatLon0.09_PT071H.grib2 2026-04-18 03:01 367K
20260418T00Z_MSC_RDPS_GeopotentialHeight_IsbL-0970_RLatLon0.09_PT071H.grib2 2026-04-18 03:01 372K
20260418T00Z_MSC_RDPS_GeopotentialHeight_IsbL-0985_RLatLon0.09_PT071H.grib2 2026-04-18 03:01 382K
20260418T00Z_MSC_RDPS_GeopotentialHeight_IsbL-1000_RLatLon0.09_PT071H.grib2 2026-04-18 03:01 395K
20260418T00Z_MSC_RDPS_GeopotentialHeight_IsbL-1015_RLatLon0.09_PT071H.grib2 2026-04-18 03:01 410K
20260418T00Z_MSC_RDPS_Humidex_Sfc_RLatLon0.09_PT071H.grib2 2026-04-18 03:01 2.4M
20260418T00Z_MSC_RDPS_IcePellets-Accum1h_Sfc_RLatLon0.09_PT071H.grib2 2026-04-18 03:01 5.1K
20260418T00Z_MSC_RDPS_IcePellets-Accum_Sfc_RLatLon0.09_PT071H.grib2 2026-04-18 03:01 62K
20260418T00Z_MSC_RDPS_KIndex_Sfc_RLatLon0.09_PT071H.grib2 2026-04-18 03:01 2.5M
20260418T00Z_MSC_RDPS_LatentHeatNetFlux_Sfc_RLatLon0.09_PT071H.grib2 2026-04-18 03:01 278K
20260418T00Z_MSC_RDPS_LiftedIndex-MU-VT_IsbL-0500_RLatLon0.09_PT071H.grib2 2026-04-18 03:01 2.4M
20260418T00Z_MSC_RDPS_NetLongwaveRadiationFlux-Accum_Sfc_RLatLon0.09_PT071H.grib2 2026-04-18 03:01 461K
20260418T00Z_MSC_RDPS_NetShortwaveRadiationFlux-Accum_Sfc_RLatLon0.09_PT071H.grib2 2026-04-18 03:01 615K
20260418T00Z_MSC_RDPS_PlanetaryBoundaryLayerHeight_Sfc_RLatLon0.09_PT071H.grib2 2026-04-18 03:01 1.0M
20260418T00Z_MSC_RDPS_Precip-Accum1h_Sfc_RLatLon0.09_PT071H.grib2 2026-04-18 03:01 1.3M
20260418T00Z_MSC_RDPS_Precip-Accum_Sfc_RLatLon0.09_PT071H.grib2 2026-04-18 03:01 2.0M
20260418T00Z_MSC_RDPS_PrecipRate_Sfc_RLatLon0.09_PT071H.grib2 2026-04-18 03:01 182K
20260418T00Z_MSC_RDPS_PrecipType-Instant_Sfc_RLatLon0.09_PT071H.grib2 2026-04-18 03:01 580K
20260418T00Z_MSC_RDPS_Pressure-Trend3h_Sfc_RLatLon0.09_PT071H.grib2 2026-04-18 03:01 1.2M
20260418T00Z_MSC_RDPS_Pressure_MSL_RLatLon0.09_PT071H.grib2 2026-04-18 03:01 297K
20260418T00Z_MSC_RDPS_Pressure_PVU-1.5_RLatLon0.09_PT071H.grib2 2026-04-18 03:01 2.3M
20260418T00Z_MSC_RDPS_Pressure_PVU-1_RLatLon0.09_PT071H.grib2 2026-04-18 03:01 2.4M
20260418T00Z_MSC_RDPS_Pressure_PVU-2_RLatLon0.09_PT071H.grib2 2026-04-18 03:01 2.4M
20260418T00Z_MSC_RDPS_Pressure_Sfc_RLatLon0.09_PT071H.grib2 2026-04-18 03:01 501K
20260418T00Z_MSC_RDPS_RadiativeTemp_Sfc_RLatLon0.09_PT071H.grib2 2026-04-18 03:01 314K
20260418T00Z_MSC_RDPS_Rain-Accum1h_Sfc_RLatLon0.09_PT071H.grib2 2026-04-18 03:01 613K
20260418T00Z_MSC_RDPS_Rain-Accum_Sfc_RLatLon0.09_PT071H.grib2 2026-04-18 03:01 1.6M
20260418T00Z_MSC_RDPS_RelativeHumidity_AGL-2m_RLatLon0.09_PT071H.grib2 2026-04-18 03:01 1.0M
20260418T00Z_MSC_RDPS_RelativeHumidity_IsbL-0010_RLatLon0.09_PT071H.grib2 2026-04-18 03:01 549K
20260418T00Z_MSC_RDPS_RelativeHumidity_IsbL-0020_RLatLon0.09_PT071H.grib2 2026-04-18 03:01 572K
20260418T00Z_MSC_RDPS_RelativeHumidity_IsbL-0030_RLatLon0.09_PT071H.grib2 2026-04-18 03:01 548K
20260418T00Z_MSC_RDPS_RelativeHumidity_IsbL-0050_RLatLon0.09_PT071H.grib2 2026-04-18 03:01 285K
20260418T00Z_MSC_RDPS_RelativeHumidity_IsbL-0100_RLatLon0.09_PT071H.grib2 2026-04-18 03:01 274K
20260418T00Z_MSC_RDPS_RelativeHumidity_IsbL-0150_RLatLon0.09_PT071H.grib2 2026-04-18 03:01 380K
20260418T00Z_MSC_RDPS_RelativeHumidity_IsbL-0175_RLatLon0.09_PT071H.grib2 2026-04-18 03:01 475K
20260418T00Z_MSC_RDPS_RelativeHumidity_IsbL-0200_RLatLon0.09_PT071H.grib2 2026-04-18 03:01 557K
20260418T00Z_MSC_RDPS_RelativeHumidity_IsbL-0225_RLatLon0.09_PT071H.grib2 2026-04-18 03:01 627K
20260418T00Z_MSC_RDPS_RelativeHumidity_IsbL-0250_RLatLon0.09_PT071H.grib2 2026-04-18 03:01 689K
20260418T00Z_MSC_RDPS_RelativeHumidity_IsbL-0275_RLatLon0.09_PT071H.grib2 2026-04-18 03:01 709K
20260418T00Z_MSC_RDPS_RelativeHumidity_IsbL-0300_RLatLon0.09_PT071H.grib2 2026-04-18 03:01 746K
20260418T00Z_MSC_RDPS_RelativeHumidity_IsbL-0350_RLatLon0.09_PT071H.grib2 2026-04-18 03:01 759K
20260418T00Z_MSC_RDPS_RelativeHumidity_IsbL-0400_RLatLon0.09_PT071H.grib2 2026-04-18 03:01 780K
20260418T00Z_MSC_RDPS_RelativeHumidity_IsbL-0450_RLatLon0.09_PT071H.grib2 2026-04-18 03:01 800K
20260418T00Z_MSC_RDPS_RelativeHumidity_IsbL-0500_RLatLon0.09_PT071H.grib2 2026-04-18 03:01 830K
20260418T00Z_MSC_RDPS_RelativeHumidity_IsbL-0550_RLatLon0.09_PT071H.grib2 2026-04-18 03:01 845K
20260418T00Z_MSC_RDPS_RelativeHumidity_IsbL-0600_RLatLon0.09_PT071H.grib2 2026-04-18 03:01 877K
20260418T00Z_MSC_RDPS_RelativeHumidity_IsbL-0650_RLatLon0.09_PT071H.grib2 2026-04-18 03:01 879K
20260418T00Z_MSC_RDPS_RelativeHumidity_IsbL-0700_RLatLon0.09_PT071H.grib2 2026-04-18 03:01 896K
20260418T00Z_MSC_RDPS_RelativeHumidity_IsbL-0750_RLatLon0.09_PT071H.grib2 2026-04-18 03:01 942K
20260418T00Z_MSC_RDPS_RelativeHumidity_IsbL-0800_RLatLon0.09_PT071H.grib2 2026-04-18 03:01 1.0M
20260418T00Z_MSC_RDPS_RelativeHumidity_IsbL-0850_RLatLon0.09_PT071H.grib2 2026-04-18 03:01 1.0M
20260418T00Z_MSC_RDPS_RelativeHumidity_IsbL-0875_RLatLon0.09_PT071H.grib2 2026-04-18 03:01 1.1M
20260418T00Z_MSC_RDPS_RelativeHumidity_IsbL-0900_RLatLon0.09_PT071H.grib2 2026-04-18 03:01 1.1M
20260418T00Z_MSC_RDPS_RelativeHumidity_IsbL-0925_RLatLon0.09_PT071H.grib2 2026-04-18 03:01 1.1M
20260418T00Z_MSC_RDPS_RelativeHumidity_IsbL-0950_RLatLon0.09_PT071H.grib2 2026-04-18 03:01 1.0M
20260418T00Z_MSC_RDPS_RelativeHumidity_IsbL-0970_RLatLon0.09_PT071H.grib2 2026-04-18 03:01 1.0M
20260418T00Z_MSC_RDPS_RelativeHumidity_IsbL-0985_RLatLon0.09_PT071H.grib2 2026-04-18 03:01 1.0M
20260418T00Z_MSC_RDPS_RelativeHumidity_IsbL-1000_RLatLon0.09_PT071H.grib2 2026-04-18 03:01 1.0M
20260418T00Z_MSC_RDPS_RelativeHumidity_IsbL-1015_RLatLon0.09_PT071H.grib2 2026-04-18 03:01 1.0M
20260418T00Z_MSC_RDPS_Runoff-Accum_Sfc_RLatLon0.09_PT071H.grib2 2026-04-18 03:01 72K
20260418T00Z_MSC_RDPS_SWEATIndex_Sfc_RLatLon0.09_PT071H.grib2 2026-04-18 03:01 2.4M
20260418T00Z_MSC_RDPS_SeeingIndex_EAtm_RLatLon0.09_PT071H.grib2 2026-04-18 03:01 1.0M
20260418T00Z_MSC_RDPS_SensibleHeatNetFlux_Sfc_RLatLon0.09_PT071H.grib2 2026-04-18 03:01 335K
20260418T00Z_MSC_RDPS_ShowalterIndex_IsbL-0500_RLatLon0.09_PT071H.grib2 2026-04-18 03:01 2.5M
20260418T00Z_MSC_RDPS_SkyTransparencyIndex_EAtm_RLatLon0.09_PT071H.grib2 2026-04-18 03:01 735K
20260418T00Z_MSC_RDPS_Snow-Accum1h_Sfc_RLatLon0.09_PT071H.grib2 2026-04-18 03:01 444K
20260418T00Z_MSC_RDPS_Snow-Accum_Sfc_RLatLon0.09_PT071H.grib2 2026-04-18 03:01 785K
20260418T00Z_MSC_RDPS_SnowDensity_Sfc_RLatLon0.09_PT071H.grib2 2026-04-18 03:01 181K
20260418T00Z_MSC_RDPS_SnowDepth_Sfc_RLatLon0.09_PT071H.grib2 2026-04-18 03:01 718K
20260418T00Z_MSC_RDPS_SoilTemp_DBS-0to10cm_RLatLon0.09_PT071H.grib2 2026-04-18 03:01 244K
20260418T00Z_MSC_RDPS_SoilTemp_Sfc_RLatLon0.09_PT071H.grib2 2026-04-18 03:01 272K
20260418T00Z_MSC_RDPS_SoilVolumetricIceContent_Sfc_RLatLon0.09_PT071H.grib2 2026-04-18 03:01 173K
20260418T00Z_MSC_RDPS_SoilVolumetricWaterContent_DBS-0to10cm_RLatLon0.09_PT071H.grib2 2026-04-18 03:01 250K
20260418T00Z_MSC_RDPS_SoilVolumetricWaterContent_DBS-0to1cm_RLatLon0.09_PT071H.grib2 2026-04-18 03:01 339K
20260418T00Z_MSC_RDPS_SpecificHumidity_AGL-120m_RLatLon0.09_PT071H.grib2 2026-04-18 03:01 477K
20260418T00Z_MSC_RDPS_SpecificHumidity_AGL-2m_RLatLon0.09_PT071H.grib2 2026-04-18 03:01 644K
20260418T00Z_MSC_RDPS_SpecificHumidity_AGL-40m_RLatLon0.09_PT071H.grib2 2026-04-18 03:01 483K
20260418T00Z_MSC_RDPS_SpecificHumidity_AGL-80m_RLatLon0.09_PT071H.grib2 2026-04-18 03:01 478K
20260418T00Z_MSC_RDPS_SpecificHumidity_IsbL-0001_RLatLon0.09_PT071H.grib2 2026-04-18 03:01 324K
20260418T00Z_MSC_RDPS_SpecificHumidity_IsbL-0005_RLatLon0.09_PT071H.grib2 2026-04-18 03:01 433K
20260418T00Z_MSC_RDPS_SpecificHumidity_IsbL-0010_RLatLon0.09_PT071H.grib2 2026-04-18 03:01 366K
20260418T00Z_MSC_RDPS_SpecificHumidity_IsbL-0020_RLatLon0.09_PT071H.grib2 2026-04-18 03:01 364K
20260418T00Z_MSC_RDPS_SpecificHumidity_IsbL-0030_RLatLon0.09_PT071H.grib2 2026-04-18 03:01 424K
20260418T00Z_MSC_RDPS_SpecificHumidity_IsbL-0050_RLatLon0.09_PT071H.grib2 2026-04-18 03:01 463K
20260418T00Z_MSC_RDPS_SpecificHumidity_IsbL-0100_RLatLon0.09_PT071H.grib2 2026-04-18 03:01 409K
20260418T00Z_MSC_RDPS_SpecificHumidity_IsbL-0150_RLatLon0.09_PT071H.grib2 2026-04-18 03:01 463K
20260418T00Z_MSC_RDPS_SpecificHumidity_IsbL-0175_RLatLon0.09_PT071H.grib2 2026-04-18 03:01 430K
20260418T00Z_MSC_RDPS_SpecificHumidity_IsbL-0200_RLatLon0.09_PT071H.grib2 2026-04-18 03:01 444K
20260418T00Z_MSC_RDPS_SpecificHumidity_IsbL-0225_RLatLon0.09_PT071H.grib2 2026-04-18 03:01 552K
20260418T00Z_MSC_RDPS_SpecificHumidity_IsbL-0250_RLatLon0.09_PT071H.grib2 2026-04-18 03:01 549K
20260418T00Z_MSC_RDPS_SpecificHumidity_IsbL-0275_RLatLon0.09_PT071H.grib2 2026-04-18 03:01 465K
20260418T00Z_MSC_RDPS_SpecificHumidity_IsbL-0300_RLatLon0.09_PT071H.grib2 2026-04-18 03:01 534K
20260418T00Z_MSC_RDPS_SpecificHumidity_IsbL-0350_RLatLon0.09_PT071H.grib2 2026-04-18 03:01 526K
20260418T00Z_MSC_RDPS_SpecificHumidity_IsbL-0400_RLatLon0.09_PT071H.grib2 2026-04-18 03:01 514K
20260418T00Z_MSC_RDPS_SpecificHumidity_IsbL-0450_RLatLon0.09_PT071H.grib2 2026-04-18 03:01 576K
20260418T00Z_MSC_RDPS_SpecificHumidity_IsbL-0500_RLatLon0.09_PT071H.grib2 2026-04-18 03:01 523K
20260418T00Z_MSC_RDPS_SpecificHumidity_IsbL-0550_RLatLon0.09_PT071H.grib2 2026-04-18 03:01 583K
20260418T00Z_MSC_RDPS_SpecificHumidity_IsbL-0600_RLatLon0.09_PT071H.grib2 2026-04-18 03:01 655K
20260418T00Z_MSC_RDPS_SpecificHumidity_IsbL-0650_RLatLon0.09_PT071H.grib2 2026-04-18 03:01 568K
20260418T00Z_MSC_RDPS_SpecificHumidity_IsbL-0700_RLatLon0.09_PT071H.grib2 2026-04-18 03:01 604K
20260418T00Z_MSC_RDPS_SpecificHumidity_IsbL-0750_RLatLon0.09_PT071H.grib2 2026-04-18 03:01 661K
20260418T00Z_MSC_RDPS_SpecificHumidity_IsbL-0800_RLatLon0.09_PT071H.grib2 2026-04-18 03:01 742K
20260418T00Z_MSC_RDPS_SpecificHumidity_IsbL-0850_RLatLon0.09_PT071H.grib2 2026-04-18 03:01 798K
20260418T00Z_MSC_RDPS_SpecificHumidity_IsbL-0875_RLatLon0.09_PT071H.grib2 2026-04-18 03:01 816K
20260418T00Z_MSC_RDPS_SpecificHumidity_IsbL-0900_RLatLon0.09_PT071H.grib2 2026-04-18 03:01 825K
20260418T00Z_MSC_RDPS_SpecificHumidity_IsbL-0925_RLatLon0.09_PT071H.grib2 2026-04-18 03:01 688K
20260418T00Z_MSC_RDPS_SpecificHumidity_IsbL-0950_RLatLon0.09_PT071H.grib2 2026-04-18 03:01 686K
20260418T00Z_MSC_RDPS_SpecificHumidity_IsbL-0970_RLatLon0.09_PT071H.grib2 2026-04-18 03:01 681K
20260418T00Z_MSC_RDPS_SpecificHumidity_IsbL-0985_RLatLon0.09_PT071H.grib2 2026-04-18 03:01 671K
20260418T00Z_MSC_RDPS_SpecificHumidity_IsbL-1000_RLatLon0.09_PT071H.grib2 2026-04-18 03:01 664K
20260418T00Z_MSC_RDPS_SpecificHumidity_IsbL-1015_RLatLon0.09_PT071H.grib2 2026-04-18 03:01 656K
20260418T00Z_MSC_RDPS_SpecificHumidity_Sfc_RLatLon0.09_PT071H.grib2 2026-04-18 03:01 327K
20260418T00Z_MSC_RDPS_StormRelativeHelicity_EtaL-10000_RLatLon0.09_PT071H.grib2 2026-04-18 03:01 1.2M
20260418T00Z_MSC_RDPS_StormSeverityIndex_EtaL-10000_RLatLon0.09_PT071H.grib2 2026-04-18 03:01 1.2M
20260418T00Z_MSC_RDPS_Thickness_IsbL-0850to0700_RLatLon0.09_PT071H.grib2 2026-04-18 03:01 181K
20260418T00Z_MSC_RDPS_Thickness_IsbL-1000to0500_RLatLon0.09_PT071H.grib2 2026-04-18 03:01 204K
20260418T00Z_MSC_RDPS_Thickness_IsbL-1000to0850_RLatLon0.09_PT071H.grib2 2026-04-18 03:01 188K
20260418T00Z_MSC_RDPS_TotalCloudCover_Sfc_RLatLon0.09_PT071H.grib2 2026-04-18 03:01 655K
20260418T00Z_MSC_RDPS_TotalTotalsIndex_Sfc_RLatLon0.09_PT071H.grib2 2026-04-18 03:01 2.4M
20260418T00Z_MSC_RDPS_UVIndex-ClearSky_Sfc_RLatLon0.09_PT071H.grib2 2026-04-18 03:01 192K
20260418T00Z_MSC_RDPS_UVIndex_Sfc_RLatLon0.09_PT071H.grib2 2026-04-18 03:01 417K
20260418T00Z_MSC_RDPS_UpwardLongwaveRadiationFlux_NTAtm_RLatLon0.09_PT071H.grib2 2026-04-18 03:01 490K
20260418T00Z_MSC_RDPS_UpwardShortwaveRadiationFlux_NTAtm_RLatLon0.09_PT071H.grib2 2026-04-18 03:01 383K
20260418T00Z_MSC_RDPS_VerticalVelocity_IsbL-0250_RLatLon0.09_PT071H.grib2 2026-04-18 03:01 590K
20260418T00Z_MSC_RDPS_VerticalVelocity_IsbL-0500_RLatLon0.09_PT071H.grib2 2026-04-18 03:01 555K
20260418T00Z_MSC_RDPS_VerticalVelocity_IsbL-0700_RLatLon0.09_PT071H.grib2 2026-04-18 03:01 594K
20260418T00Z_MSC_RDPS_VerticalVelocity_IsbL-0850_RLatLon0.09_PT071H.grib2 2026-04-18 03:01 704K
20260418T00Z_MSC_RDPS_VerticalWindShear_EtaL-6500_RLatLon0.09_PT071H.grib2 2026-04-18 03:01 1.2M
20260418T00Z_MSC_RDPS_WindChill_Sfc_RLatLon0.09_PT071H.grib2 2026-04-18 03:01 1.2M
20260418T00Z_MSC_RDPS_WindDir_AGL-10m_RLatLon0.09_PT071H.grib2 2026-04-18 03:01 943K
20260418T00Z_MSC_RDPS_WindDir_AGL-120m_RLatLon0.09_PT071H.grib2 2026-04-18 03:01 591K
20260418T00Z_MSC_RDPS_WindDir_AGL-40m_RLatLon0.09_PT071H.grib2 2026-04-18 03:01 613K
20260418T00Z_MSC_RDPS_WindDir_AGL-80m_RLatLon0.09_PT071H.grib2 2026-04-18 03:01 600K
20260418T00Z_MSC_RDPS_WindDir_IsbL-0001_RLatLon0.09_PT071H.grib2 2026-04-18 03:01 258K
20260418T00Z_MSC_RDPS_WindDir_IsbL-0005_RLatLon0.09_PT071H.grib2 2026-04-18 03:01 347K
20260418T00Z_MSC_RDPS_WindDir_IsbL-0010_RLatLon0.09_PT071H.grib2 2026-04-18 03:01 383K
20260418T00Z_MSC_RDPS_WindDir_IsbL-0020_RLatLon0.09_PT071H.grib2 2026-04-18 03:01 411K
20260418T00Z_MSC_RDPS_WindDir_IsbL-0030_RLatLon0.09_PT071H.grib2 2026-04-18 03:01 430K
20260418T00Z_MSC_RDPS_WindDir_IsbL-0050_RLatLon0.09_PT071H.grib2 2026-04-18 03:01 424K
20260418T00Z_MSC_RDPS_WindDir_IsbL-0100_RLatLon0.09_PT071H.grib2 2026-04-18 03:01 419K
20260418T00Z_MSC_RDPS_WindDir_IsbL-0150_RLatLon0.09_PT071H.grib2 2026-04-18 03:01 411K
20260418T00Z_MSC_RDPS_WindDir_IsbL-0175_RLatLon0.09_PT071H.grib2 2026-04-18 03:01 430K
20260418T00Z_MSC_RDPS_WindDir_IsbL-0200_RLatLon0.09_PT071H.grib2 2026-04-18 03:01 447K
20260418T00Z_MSC_RDPS_WindDir_IsbL-0225_RLatLon0.09_PT071H.grib2 2026-04-18 03:01 450K
20260418T00Z_MSC_RDPS_WindDir_IsbL-0250_RLatLon0.09_PT071H.grib2 2026-04-18 03:01 445K
20260418T00Z_MSC_RDPS_WindDir_IsbL-0275_RLatLon0.09_PT071H.grib2 2026-04-18 03:01 463K
20260418T00Z_MSC_RDPS_WindDir_IsbL-0300_RLatLon0.09_PT071H.grib2 2026-04-18 03:01 458K
20260418T00Z_MSC_RDPS_WindDir_IsbL-0350_RLatLon0.09_PT071H.grib2 2026-04-18 03:01 471K
20260418T00Z_MSC_RDPS_WindDir_IsbL-0400_RLatLon0.09_PT071H.grib2 2026-04-18 03:01 490K
20260418T00Z_MSC_RDPS_WindDir_IsbL-0450_RLatLon0.09_PT071H.grib2 2026-04-18 03:01 509K
20260418T00Z_MSC_RDPS_WindDir_IsbL-0500_RLatLon0.09_PT071H.grib2 2026-04-18 03:01 533K
20260418T00Z_MSC_RDPS_WindDir_IsbL-0550_RLatLon0.09_PT071H.grib2 2026-04-18 03:01 559K
20260418T00Z_MSC_RDPS_WindDir_IsbL-0600_RLatLon0.09_PT071H.grib2 2026-04-18 03:01 584K
20260418T00Z_MSC_RDPS_WindDir_IsbL-0650_RLatLon0.09_PT071H.grib2 2026-04-18 03:01 614K
20260418T00Z_MSC_RDPS_WindDir_IsbL-0700_RLatLon0.09_PT071H.grib2 2026-04-18 03:01 659K
20260418T00Z_MSC_RDPS_WindDir_IsbL-0750_RLatLon0.09_PT071H.grib2 2026-04-18 03:01 709K
20260418T00Z_MSC_RDPS_WindDir_IsbL-0800_RLatLon0.09_PT071H.grib2 2026-04-18 03:01 774K
20260418T00Z_MSC_RDPS_WindDir_IsbL-0850_RLatLon0.09_PT071H.grib2 2026-04-18 03:01 834K
20260418T00Z_MSC_RDPS_WindDir_IsbL-0875_RLatLon0.09_PT071H.grib2 2026-04-18 03:01 862K
20260418T00Z_MSC_RDPS_WindDir_IsbL-0900_RLatLon0.09_PT071H.grib2 2026-04-18 03:01 881K
20260418T00Z_MSC_RDPS_WindDir_IsbL-0925_RLatLon0.09_PT071H.grib2 2026-04-18 03:01 888K
20260418T00Z_MSC_RDPS_WindDir_IsbL-0950_RLatLon0.09_PT071H.grib2 2026-04-18 03:01 888K
20260418T00Z_MSC_RDPS_WindDir_IsbL-0970_RLatLon0.09_PT071H.grib2 2026-04-18 03:01 893K
20260418T00Z_MSC_RDPS_WindDir_IsbL-0985_RLatLon0.09_PT071H.grib2 2026-04-18 03:01 904K
20260418T00Z_MSC_RDPS_WindDir_IsbL-1000_RLatLon0.09_PT071H.grib2 2026-04-18 03:01 921K
20260418T00Z_MSC_RDPS_WindDir_IsbL-1015_RLatLon0.09_PT071H.grib2 2026-04-18 03:01 937K
20260418T00Z_MSC_RDPS_WindGust-Max_AGL-10m_RLatLon0.09_PT071H.grib2 2026-04-18 03:01 958K
20260418T00Z_MSC_RDPS_WindGust-Min_AGL-10m_RLatLon0.09_PT071H.grib2 2026-04-18 03:01 1.0M
20260418T00Z_MSC_RDPS_WindGust_AGL-10m_RLatLon0.09_PT071H.grib2 2026-04-18 03:01 1.0M
20260418T00Z_MSC_RDPS_WindSpeed_AGL-10m_RLatLon0.09_PT071H.grib2 2026-04-18 03:01 841K
20260418T00Z_MSC_RDPS_WindSpeed_AGL-120m_RLatLon0.09_PT071H.grib2 2026-04-18 03:01 545K
20260418T00Z_MSC_RDPS_WindSpeed_AGL-40m_RLatLon0.09_PT071H.grib2 2026-04-18 03:01 541K
20260418T00Z_MSC_RDPS_WindSpeed_AGL-80m_RLatLon0.09_PT071H.grib2 2026-04-18 03:01 547K
20260418T00Z_MSC_RDPS_WindSpeed_IsbL-0001_RLatLon0.09_PT071H.grib2 2026-04-18 03:01 245K
20260418T00Z_MSC_RDPS_WindSpeed_IsbL-0005_RLatLon0.09_PT071H.grib2 2026-04-18 03:01 299K
20260418T00Z_MSC_RDPS_WindSpeed_IsbL-0010_RLatLon0.09_PT071H.grib2 2026-04-18 03:01 315K
20260418T00Z_MSC_RDPS_WindSpeed_IsbL-0020_RLatLon0.09_PT071H.grib2 2026-04-18 03:01 339K
20260418T00Z_MSC_RDPS_WindSpeed_IsbL-0030_RLatLon0.09_PT071H.grib2 2026-04-18 03:01 339K
20260418T00Z_MSC_RDPS_WindSpeed_IsbL-0050_RLatLon0.09_PT071H.grib2 2026-04-18 03:01 481K
20260418T00Z_MSC_RDPS_WindSpeed_IsbL-0100_RLatLon0.09_PT071H.grib2 2026-04-18 03:01 454K
20260418T00Z_MSC_RDPS_WindSpeed_IsbL-0150_RLatLon0.09_PT071H.grib2 2026-04-18 03:01 379K
20260418T00Z_MSC_RDPS_WindSpeed_IsbL-0175_RLatLon0.09_PT071H.grib2 2026-04-18 03:01 409K
20260418T00Z_MSC_RDPS_WindSpeed_IsbL-0200_RLatLon0.09_PT071H.grib2 2026-04-18 03:01 446K
20260418T00Z_MSC_RDPS_WindSpeed_IsbL-0225_RLatLon0.09_PT071H.grib2 2026-04-18 03:01 450K
20260418T00Z_MSC_RDPS_WindSpeed_IsbL-0250_RLatLon0.09_PT071H.grib2 2026-04-18 03:01 451K
20260418T00Z_MSC_RDPS_WindSpeed_IsbL-0275_RLatLon0.09_PT071H.grib2 2026-04-18 03:01 465K
20260418T00Z_MSC_RDPS_WindSpeed_IsbL-0300_RLatLon0.09_PT071H.grib2 2026-04-18 03:01 459K
20260418T00Z_MSC_RDPS_WindSpeed_IsbL-0350_RLatLon0.09_PT071H.grib2 2026-04-18 03:01 467K
20260418T00Z_MSC_RDPS_WindSpeed_IsbL-0400_RLatLon0.09_PT071H.grib2 2026-04-18 03:01 471K
20260418T00Z_MSC_RDPS_WindSpeed_IsbL-0450_RLatLon0.09_PT071H.grib2 2026-04-18 03:01 473K
20260418T00Z_MSC_RDPS_WindSpeed_IsbL-0500_RLatLon0.09_PT071H.grib2 2026-04-18 03:01 462K
20260418T00Z_MSC_RDPS_WindSpeed_IsbL-0550_RLatLon0.09_PT071H.grib2 2026-04-18 03:01 467K
20260418T00Z_MSC_RDPS_WindSpeed_IsbL-0600_RLatLon0.09_PT071H.grib2 2026-04-18 03:01 477K
20260418T00Z_MSC_RDPS_WindSpeed_IsbL-0650_RLatLon0.09_PT071H.grib2 2026-04-18 03:01 618K
20260418T00Z_MSC_RDPS_WindSpeed_IsbL-0700_RLatLon0.09_PT071H.grib2 2026-04-18 03:01 688K
20260418T00Z_MSC_RDPS_WindSpeed_IsbL-0750_RLatLon0.09_PT071H.grib2 2026-04-18 03:01 723K
20260418T00Z_MSC_RDPS_WindSpeed_IsbL-0800_RLatLon0.09_PT071H.grib2 2026-04-18 03:01 728K
20260418T00Z_MSC_RDPS_WindSpeed_IsbL-0850_RLatLon0.09_PT071H.grib2 2026-04-18 03:01 776K
20260418T00Z_MSC_RDPS_WindSpeed_IsbL-0875_RLatLon0.09_PT071H.grib2 2026-04-18 03:01 794K
20260418T00Z_MSC_RDPS_WindSpeed_IsbL-0900_RLatLon0.09_PT071H.grib2 2026-04-18 03:01 807K
20260418T00Z_MSC_RDPS_WindSpeed_IsbL-0925_RLatLon0.09_PT071H.grib2 2026-04-18 03:01 815K
20260418T00Z_MSC_RDPS_WindSpeed_IsbL-0950_RLatLon0.09_PT071H.grib2 2026-04-18 03:01 815K
20260418T00Z_MSC_RDPS_WindSpeed_IsbL-0970_RLatLon0.09_PT071H.grib2 2026-04-18 03:01 862K
20260418T00Z_MSC_RDPS_WindSpeed_IsbL-0985_RLatLon0.09_PT071H.grib2 2026-04-18 03:01 860K
20260418T00Z_MSC_RDPS_WindSpeed_IsbL-1000_RLatLon0.09_PT071H.grib2 2026-04-18 03:01 854K
20260418T00Z_MSC_RDPS_WindSpeed_IsbL-1015_RLatLon0.09_PT071H.grib2 2026-04-18 03:01 846K
20260418T00Z_MSC_RDPS_WindU_AGL-10m_RLatLon0.09_PT071H.grib2 2026-04-18 03:01 435K
20260418T00Z_MSC_RDPS_WindU_AGL-120m_RLatLon0.09_PT071H.grib2 2026-04-18 03:01 417K
20260418T00Z_MSC_RDPS_WindU_AGL-40m_RLatLon0.09_PT071H.grib2 2026-04-18 03:01 538K
20260418T00Z_MSC_RDPS_WindU_AGL-80m_RLatLon0.09_PT071H.grib2 2026-04-18 03:01 419K
20260418T00Z_MSC_RDPS_WindU_IsbL-0001_RLatLon0.09_PT071H.grib2 2026-04-18 03:01 290K
20260418T00Z_MSC_RDPS_WindU_IsbL-0005_RLatLon0.09_PT071H.grib2 2026-04-18 03:01 336K
20260418T00Z_MSC_RDPS_WindU_IsbL-0010_RLatLon0.09_PT071H.grib2 2026-04-18 03:01 319K
20260418T00Z_MSC_RDPS_WindU_IsbL-0020_RLatLon0.09_PT071H.grib2 2026-04-18 03:01 337K
20260418T00Z_MSC_RDPS_WindU_IsbL-0030_RLatLon0.09_PT071H.grib2 2026-04-18 03:01 335K
20260418T00Z_MSC_RDPS_WindU_IsbL-0050_RLatLon0.09_PT071H.grib2 2026-04-18 03:01 365K
20260418T00Z_MSC_RDPS_WindU_IsbL-0100_RLatLon0.09_PT071H.grib2 2026-04-18 03:01 446K
20260418T00Z_MSC_RDPS_WindU_IsbL-0150_RLatLon0.09_PT071H.grib2 2026-04-18 03:01 397K
20260418T00Z_MSC_RDPS_WindU_IsbL-0175_RLatLon0.09_PT071H.grib2 2026-04-18 03:01 423K
20260418T00Z_MSC_RDPS_WindU_IsbL-0200_RLatLon0.09_PT071H.grib2 2026-04-18 03:01 439K
20260418T00Z_MSC_RDPS_WindU_IsbL-0225_RLatLon0.09_PT071H.grib2 2026-04-18 03:01 442K
20260418T00Z_MSC_RDPS_WindU_IsbL-0250_RLatLon0.09_PT071H.grib2 2026-04-18 03:01 342K
20260418T00Z_MSC_RDPS_WindU_IsbL-0275_RLatLon0.09_PT071H.grib2 2026-04-18 03:01 354K
20260418T00Z_MSC_RDPS_WindU_IsbL-0300_RLatLon0.09_PT071H.grib2 2026-04-18 03:01 348K
20260418T00Z_MSC_RDPS_WindU_IsbL-0350_RLatLon0.09_PT071H.grib2 2026-04-18 03:01 378K
20260418T00Z_MSC_RDPS_WindU_IsbL-0400_RLatLon0.09_PT071H.grib2 2026-04-18 03:01 356K
20260418T00Z_MSC_RDPS_WindU_IsbL-0450_RLatLon0.09_PT071H.grib2 2026-04-18 03:01 358K
20260418T00Z_MSC_RDPS_WindU_IsbL-0500_RLatLon0.09_PT071H.grib2 2026-04-18 03:01 467K
20260418T00Z_MSC_RDPS_WindU_IsbL-0550_RLatLon0.09_PT071H.grib2 2026-04-18 03:01 473K
20260418T00Z_MSC_RDPS_WindU_IsbL-0600_RLatLon0.09_PT071H.grib2 2026-04-18 03:01 482K
20260418T00Z_MSC_RDPS_WindU_IsbL-0650_RLatLon0.09_PT071H.grib2 2026-04-18 03:01 502K
20260418T00Z_MSC_RDPS_WindU_IsbL-0700_RLatLon0.09_PT071H.grib2 2026-04-18 03:01 525K
20260418T00Z_MSC_RDPS_WindU_IsbL-0750_RLatLon0.09_PT071H.grib2 2026-04-18 03:01 541K
20260418T00Z_MSC_RDPS_WindU_IsbL-0800_RLatLon0.09_PT071H.grib2 2026-04-18 03:01 585K
20260418T00Z_MSC_RDPS_WindU_IsbL-0850_RLatLon0.09_PT071H.grib2 2026-04-18 03:01 637K
20260418T00Z_MSC_RDPS_WindU_IsbL-0875_RLatLon0.09_PT071H.grib2 2026-04-18 03:01 652K
20260418T00Z_MSC_RDPS_WindU_IsbL-0900_RLatLon0.09_PT071H.grib2 2026-04-18 03:01 662K
20260418T00Z_MSC_RDPS_WindU_IsbL-0925_RLatLon0.09_PT071H.grib2 2026-04-18 03:01 666K
20260418T00Z_MSC_RDPS_WindU_IsbL-0950_RLatLon0.09_PT071H.grib2 2026-04-18 03:01 663K
20260418T00Z_MSC_RDPS_WindU_IsbL-0970_RLatLon0.09_PT071H.grib2 2026-04-18 03:01 655K
20260418T00Z_MSC_RDPS_WindU_IsbL-0985_RLatLon0.09_PT071H.grib2 2026-04-18 03:01 654K
20260418T00Z_MSC_RDPS_WindU_IsbL-1000_RLatLon0.09_PT071H.grib2 2026-04-18 03:01 653K
20260418T00Z_MSC_RDPS_WindU_IsbL-1015_RLatLon0.09_PT071H.grib2 2026-04-18 03:01 785K
20260418T00Z_MSC_RDPS_WindV_AGL-10m_RLatLon0.09_PT071H.grib2 2026-04-18 03:01 432K
20260418T00Z_MSC_RDPS_WindV_AGL-120m_RLatLon0.09_PT071H.grib2 2026-04-18 03:01 413K
20260418T00Z_MSC_RDPS_WindV_AGL-40m_RLatLon0.09_PT071H.grib2 2026-04-18 03:01 533K
20260418T00Z_MSC_RDPS_WindV_AGL-80m_RLatLon0.09_PT071H.grib2 2026-04-18 03:01 531K
20260418T00Z_MSC_RDPS_WindV_IsbL-0001_RLatLon0.09_PT071H.grib2 2026-04-18 03:01 289K
20260418T00Z_MSC_RDPS_WindV_IsbL-0005_RLatLon0.09_PT071H.grib2 2026-04-18 03:01 333K
20260418T00Z_MSC_RDPS_WindV_IsbL-0010_RLatLon0.09_PT071H.grib2 2026-04-18 03:01 348K
20260418T00Z_MSC_RDPS_WindV_IsbL-0020_RLatLon0.09_PT071H.grib2 2026-04-18 03:01 370K
20260418T00Z_MSC_RDPS_WindV_IsbL-0030_RLatLon0.09_PT071H.grib2 2026-04-18 03:01 334K
20260418T00Z_MSC_RDPS_WindV_IsbL-0050_RLatLon0.09_PT071H.grib2 2026-04-18 03:01 368K
20260418T00Z_MSC_RDPS_WindV_IsbL-0100_RLatLon0.09_PT071H.grib2 2026-04-18 03:01 369K
20260418T00Z_MSC_RDPS_WindV_IsbL-0150_RLatLon0.09_PT071H.grib2 2026-04-18 03:01 393K
20260418T00Z_MSC_RDPS_WindV_IsbL-0175_RLatLon0.09_PT071H.grib2 2026-04-18 03:01 325K
20260418T00Z_MSC_RDPS_WindV_IsbL-0200_RLatLon0.09_PT071H.grib2 2026-04-18 03:01 338K
20260418T00Z_MSC_RDPS_WindV_IsbL-0225_RLatLon0.09_PT071H.grib2 2026-04-18 03:01 340K
20260418T00Z_MSC_RDPS_WindV_IsbL-0250_RLatLon0.09_PT071H.grib2 2026-04-18 03:01 366K
20260418T00Z_MSC_RDPS_WindV_IsbL-0275_RLatLon0.09_PT071H.grib2 2026-04-18 03:01 377K
20260418T00Z_MSC_RDPS_WindV_IsbL-0300_RLatLon0.09_PT071H.grib2 2026-04-18 03:01 372K
20260418T00Z_MSC_RDPS_WindV_IsbL-0350_RLatLon0.09_PT071H.grib2 2026-04-18 03:01 377K
20260418T00Z_MSC_RDPS_WindV_IsbL-0400_RLatLon0.09_PT071H.grib2 2026-04-18 03:01 355K
20260418T00Z_MSC_RDPS_WindV_IsbL-0450_RLatLon0.09_PT071H.grib2 2026-04-18 03:01 358K
20260418T00Z_MSC_RDPS_WindV_IsbL-0500_RLatLon0.09_PT071H.grib2 2026-04-18 03:01 363K
20260418T00Z_MSC_RDPS_WindV_IsbL-0550_RLatLon0.09_PT071H.grib2 2026-04-18 03:01 471K
20260418T00Z_MSC_RDPS_WindV_IsbL-0600_RLatLon0.09_PT071H.grib2 2026-04-18 03:01 481K
20260418T00Z_MSC_RDPS_WindV_IsbL-0650_RLatLon0.09_PT071H.grib2 2026-04-18 03:01 500K
20260418T00Z_MSC_RDPS_WindV_IsbL-0700_RLatLon0.09_PT071H.grib2 2026-04-18 03:01 523K
20260418T00Z_MSC_RDPS_WindV_IsbL-0750_RLatLon0.09_PT071H.grib2 2026-04-18 03:01 538K
20260418T00Z_MSC_RDPS_WindV_IsbL-0800_RLatLon0.09_PT071H.grib2 2026-04-18 03:01 580K
20260418T00Z_MSC_RDPS_WindV_IsbL-0850_RLatLon0.09_PT071H.grib2 2026-04-18 03:01 621K
20260418T00Z_MSC_RDPS_WindV_IsbL-0875_RLatLon0.09_PT071H.grib2 2026-04-18 03:01 636K
20260418T00Z_MSC_RDPS_WindV_IsbL-0900_RLatLon0.09_PT071H.grib2 2026-04-18 03:01 647K
20260418T00Z_MSC_RDPS_WindV_IsbL-0925_RLatLon0.09_PT071H.grib2 2026-04-18 03:01 653K
20260418T00Z_MSC_RDPS_WindV_IsbL-0950_RLatLon0.09_PT071H.grib2 2026-04-18 03:01 649K
20260418T00Z_MSC_RDPS_WindV_IsbL-0970_RLatLon0.09_PT071H.grib2 2026-04-18 03:01 649K
20260418T00Z_MSC_RDPS_WindV_IsbL-0985_RLatLon0.09_PT071H.grib2 2026-04-18 03:01 649K
20260418T00Z_MSC_RDPS_WindV_IsbL-1000_RLatLon0.09_PT071H.grib2 2026-04-18 03:01 647K
20260418T00Z_MSC_RDPS_WindV_IsbL-1015_RLatLon0.09_PT071H.grib2 2026-04-18 03:01 781K